Regional Weather Roundup
Issued by NWS

Home | Current Version | Previous Version | Text Only | Print | Product List | Glossary Off
Versions: 1 2 3 4 5 6 7 8 9 10 11 12 13 14 15 16 17 18 19 20 21 22 23 24 25 26 27 28 29 30 31 32 33 34 35 36 37 38 39 40 41 42 43 44 45 46 47 48 49 50

000
ASUS43 KLOT 272009
RWRIL

ILLINOIS REGIONAL WEATHER ROUNDUP
NATIONAL WEATHER SERVICE CHICAGO/ROMEOVILLE IL
300 PM CDT FRI MAY 27 2016

NOTE: "FAIR" INDICATES FEW OR NO CLOUDS BELOW 12,000 FEET WITH NO
SIGNIFICANT WEATHER AND/OR OBSTRUCTIONS TO VISIBILITY.

* THESE STATIONS ARE NOT UNDER NWS QUALITY CONTROL. THEY ALSO MAY NOT
  REPORT WEATHER SUCH AS PRECIPITATION OR FOG.

ILZ001-002-007-009-015-016-024-272100-
NORTHWEST ILLINOIS

CITY           SKY/WX    TMP DP  RH WIND       PRES   REMARKS
MOLINE         CLOUDY    74  67  78 S15       29.79S
STERLING*      LGT RAIN  70  68  93 VRB7      29.82S
SAVANNA*       CLOUDY    76  67  74 S9        29.79F
$$

ILZ003-004-008-010-011-017-018-272100-
NORTH CENTRAL ILLINOIS

CITY           SKY/WX    TMP DP  RH WIND       PRES   REMARKS
ROCKFORD       LGT RAIN  76  65  68 SW13      29.82F
FREEPORT*      CLOUDY    73  64  72 S17       29.83R
ROCHELLE*      RAIN      74  65  73 S30       29.84R
DE KALB*       CLOUDY    75  65  71 S22       29.85S
$$

ILZ005-006-012>014-019>023-272100-
NORTHEAST ILLINOIS

CITY           SKY/WX    TMP DP  RH WIND       PRES   REMARKS
CHICAGO-OHARE  CLOUDY    79  64  60 S17G25    29.84F HX  81
CHICAGO-MIDWAY CLOUDY    81  64  56 S14G20    29.84F HX  82
AURORA         LGT RAIN  76  68  76 S12       29.84S
LANSING*       CLOUDY    82  64  53 S17G28    29.86F HX  83
JOLIET*        LGT RAIN  75  69  84 S9        29.86R
WAUKEGAN       LGT RAIN  72  65  78 SE12G18   29.85F
DUPAGE AIRPORT LGT RAIN  74  66  76 S7        29.84S
KANKAKEE*      RAIN      80  65  60 S18G25    29.87F HX  81
WHEELING       CLOUDY    80  63  55 S21       29.85F HX  81
MORRIS*        CLOUDY    81  62  51 S22G28    29.82F HX  82
ROMEOVILLE*    RAIN      75  63  66 S21G37    29.86R
NORTHERLY ISL    N/A     78  65  63 S7          N/A  HX  80
NORTHERLY ISL    N/A     78  65  63 S7          N/A  HX  80
$$

LMZ740>746-272100-
SOUTHERN LAKE MICHIGAN

STATION/POSITION SKY/WX   TEMP    WIND        PRES    VSBY  WAVE
                          AIR SEA DIR/SP/G                  HT/PER
                          (F)     (DEG/KT/KT) (MB)    (MI)  (FT/S)
SOUTHERN BUOY              57 50  130/ 10/ 10 1011.9F         1
WILMETTE HARBOR            62 59  140/ 10/ 12   N/A           1/ 2
HARRISON CRIB              72     180/  9/ 12   N/A
BURNHAM HARBOR             78     170/  6/ 11   N/A
CALUMET HARBOR             80     180/ 10/ 17 1010.9F
BURNS HARBOR               81     190/  8/ 14 1012.2F
MICHIGAN CITY              80     160/ 15/ 18   N/A
MICHIGAN CITY 6N           74 60  180/ 12/ 16   N/A           1
ST. JOSEPH                 73 64  140/  8/ 12   N/A           1
$$

ILZ025>027-034>036-040-047-049-050-058-095>099-272100-
WEST-CENTRAL ILLINOIS

CITY           SKY/WX    TMP DP  RH WIND       PRES   REMARKS
QUINCY         CLOUDY    77  67  71 SW12      29.79S
GALESBURG*     LGT RAIN  71  67  89 S7        29.82S
MACOMB*        CLOUDY    74  69  83 S14       29.83S
JACKSONVILLE*  CLOUDY    76  68  75 S15       29.82S
PITTSFIELD*    PTSUNNY   78  70  78 S13G20    29.81F
$$

ILZ028>032-037-038-041>044-048-051>054-059>061-272100-
CENTRAL ILLINOIS

CITY           SKY/WX    TMP DP  RH WIND       PRES   REMARKS
PONTIAC        CLOUDY    80  67  64 S21       29.86R HX  82
BLOOMINGTON    CLOUDY    80  68  67 S25G33    29.87S HX  82
DECATUR        CLOUDY    75  66  73 S15       29.88R
PEORIA         CLOUDY    76  66  71 S12       29.83S
LACON*         CLOUDY    76  65  68 S10       29.82F
LINCOLN*       CLOUDY    78  69  73 S18G30    29.85R HX  80
SPRINGFIELD    CLOUDY    77  68  73 S17G25    29.85R
TAYLORVILLE    CLOUDY    76  69  79 S16G24    29.86F
$$

ILZ033-039-045-046-055>057-062-063-272100-
EAST-CENTRAL ILLINOIS

CITY           SKY/WX    TMP DP  RH WIND       PRES   REMARKS
CHAMPAIGN      CLOUDY    79  65  62 S20       29.89S HX  81
RANTOUL*       CLOUDY    82  67  59 S17G26    29.88F HX  84
MATTOON        CLOUDY    78  67  68 S15G23    29.89S HX  80
PARIS*         PTSUNNY   83  67  58 S15       29.91S HX  86
$$

ILZ079-100>102-272100-
SOUTHWEST ILLINOIS

CITY           SKY/WX    TMP DP  RH WIND       PRES   REMARKS
BELLEVILLE     LGT RAIN  74  74 100 E8        29.83F
CAHOKIA*       CLOUDY    77  69  76 S10G21    29.83S
SPARTA*        CLOUDY    76  70  80 S13       29.86F
$$

ILZ064>066-069>071-074>076-080>082-084>086-088>090-092>094-272100-
SOUTH-CENTRAL ILLINOIS

CITY           SKY/WX    TMP DP  RH WIND       PRES   REMARKS
CARBONDALE     LGT RAIN  78  68  71 S18G24    29.86F HX  80
CAIRO*         MOSUNNY   80  70  72 S13G23    29.87F HX  83
EFFINGHAM*     CLOUDY    79  71  76 SE12G18   29.91F HX  82
MARION         PTSUNNY   81  72  74 S14G21    29.89F HX  84
MT. VERNON     CLOUDY    79  70  73 S9        29.88F HX  81
CENTRALIA*     LGT RAIN  78  73  84 S10       29.87F
SALEM*         CLOUDY    79  71  74 S9        29.88F HX  82
METROPOLIS*    PTSUNNY   82  71  70 S12G20    29.90F HX  85
$$

ILZ067-068-072-073-078-083-087-091-272100-
SOUTHEAST ILLINOIS

CITY           SKY/WX    TMP DP  RH WIND       PRES   REMARKS
LAWRENCEVILLE  CLOUDY    85  67  54 S18       29.91F HX  87
FLORA*         PTSUNNY   81  71  70 S18       29.90S HX  85
FAIRFIELD*     PTSUNNY   78  69  73 S7        29.88F HX  80
HARRISBURG*    CLOUDY    78  73  84 S9        29.89F HX  81
ROBINSON*      CLOUDY    81  68  65 S15G24    29.91F HX  83
CARMI*         CLOUDY    82  71  71 S15G22    29.89F HX  86
$$

ABBREVIATIONS USED IN REMARKS
   TC - TEMPERATURE IN CELSIUS
  WCI - WIND CHILL INDEX
   HX - HEAT INDEX
  VSB - VISIBILITY
$$





USA.gov is the U.S. government's official web portal to all federal, state and local government web resources and services.